Regional Weather Roundup
Issued by NWS

Home | Current Version | Previous Version | Text Only | Print | Product List | Glossary Off
Versions: 1 2 3 4 5 6 7 8 9 10 11 12 13 14 15 16 17 18 19 20 21 22 23 24 25 26 27 28 29 30 31 32 33 34 35 36 37 38 39 40 41 42 43 44 45 46 47 48 49 50

000
ASUS43 KBIS 260510
RWRND
NORTH DAKOTA REGIONAL WEATHER ROUNDUP
NATIONAL WEATHER SERVICE EASTERN NORTH DAKOTA/GRAND FORKS ND
1200 AM CDT MON JUN 26 2017

  NOTE: "FAIR" INDICATES FEW OR NO CLOUDS BELOW 12,000 FEET WITH NO
  SIGNIFICANT WEATHER AND/OR OBSTRUCTIONS TO VISIBILITY.

NDZ001>003-009>011-017-260600-
...NORTHWEST NORTH DAKOTA...

CITY           SKY/WX    TMP DP  RH WIND       PRES   REMARKS
WILLISTON      FAIR      57  43  59 E3        30.23S
MINOT          FAIR      50  39  66 CALM      30.24S
MINOT AFB      FAIR      44  39  84 CALM      30.23S
$$

NDZ018>021-031>035-040>046-260600-
...SOUTHWEST NORTH DAKOTA...

CITY           SKY/WX    TMP DP  RH WIND       PRES   REMARKS
BISMARCK       FAIR      53  46  77 NE5       30.25S
DICKINSON      FAIR      50  39  66 E7        30.23R
GARRISON         N/A     51  40  65 NE3       30.24S
HETTINGER      FAIR      55  40  56 E9        30.25S
$$

NDZ004>008-012>016-024-026-027-054-260600-
...NORTHEAST NORTH DAKOTA...

CITY           SKY/WX    TMP DP  RH WIND       PRES   REMARKS
GRAND FORKS    FAIR      47  42  83 W5        30.20S
GRAND FORKS AF FAIR      44  42  92 NW3       30.21S
DEVILS LAKE    FAIR      47  41  80 CALM      30.24S
$$

NDZ022-023-025-028>030-036>039-047>053-260600-
...SOUTHEAST NORTH DAKOTA...

CITY           SKY/WX    TMP DP  RH WIND       PRES   REMARKS
JAMESTOWN      FAIR      49  41  74 N3        30.23S
FARGO          FAIR      50  39  66 NW5       30.20S
WAHPETON       FAIR      52  39  62 N6        30.20R
$$



USA.gov is the U.S. government's official web portal to all federal, state and local government web resources and services.